Погода в Энмелене

Россия / Чукотский автономный округ     65°00′43″N   175°50′25″W
В апреле 2022 года жителям России запретили посещать сайт meteo.paraplan.net по решению Генеральной прокуратуры. Аудитория сайта уменьшилась в 10 раз. Владельцы сайта не видят смысла в поддержке погодного сервера в таких условиях. Сайт будет закрыт в октябре.
темп.,
°C
ветер,
м/с
пор.,
м/с
влажн.,
%
обл.,
%
осадки,
мм/ч
давл.,
гПа
погр.,
м
4 октября, вт
вт400:000всв22752 0.0 100886
03:000св22793 0.0 100893
06:00−1всв22805 0.0 100889
09:000всв11713 0.0 1009144
12:00+2с11630 0.0 1009323
15:00+2ссз22633 0.0 1010388
18:00+1ссв22755 0.0 1011185
21:000ссв227813 0.0 1012158
5 октября, ср
ср500:00+1ссз127091 0.0 1014416
03:00+1сз237297 0.0 1015472
06:00+1зсз227798 0.2 1016347
09:00+2зсз237730 0.1 1017511
12:00+2з237234 0.2 1019707
15:00+2ю336922 0.0 1019600
18:00+1юв457677 0.0 1018388
21:00+2юв5781100 0.0 1016525
6 октября, чт
чт600:00+3юв91496100 0.5 1013776
03:00+3юв91795100 2.2 1008803
06:00+4ююв122096100 5.6 10031021
09:00+4ююв192595100 6.3 9981077
12:00+5ююв182596100 14.4 991947
15:00+5ююв132197100 11.9 985882
18:00+5ююз121693100 14.8 985613
21:00+3зюз14177538 0.1 9911230
7 октября, пт
пт700:00+3зюз15197713 0.1 9941233
03:00+4юз1419705 0.1 9961240
06:00+4зюз1217695 0.1 9981043
09:00+4юз1115733 0.1 10011224
12:00+4юз913781 0.1 10011039
15:00+4юз811835 0.0 1001664
18:00+3юз588135 0.1 1002238
21:00+4ююз5874100 0.1 1004241
8 октября, сб
сб800:00+4юз710835 0.8 1004640
03:00+3зюз468428 0.1 1005392
06:00+3ю4680100 0.3 1006283
09:00+4ю5983100 0.6 1005731
12:00+4ююз688820 2.1 1004594
15:00+2юз3491100 0.3 1004455
18:00+2сз2294100 0.4 1004254
21:00+2ссз3393100 0.2 1004287